Satellite-Ground Cal/Val Region Overpasses Predictions

Prediction of Satellite NPP Overpassing Cal/Val Region: PacNW

Region Location: (Latitude: 10.00, Longitude: 139.50) to (Latitude: 22.70, Longitude: 165.60).

Table of predicted overpasses for the next 14.0 days since TLE Epoch: 10/22/2022
Interval Starting Time Starting Location Ending Time Ending Location
1 10/22/2022 15:43:57 ( 22.66, 149.10) 10/22/2022 15:47:32 ( 10.04, 146.09)
2 10/23/2022 02:53:02 ( 10.03, 156.62) 10/23/2022 02:56:37 ( 22.65, 153.61)
3 10/23/2022 15:24:55 ( 22.68, 153.86) 10/23/2022 15:28:30 ( 10.06, 150.86)
4 10/24/2022 02:34:00 ( 10.01, 161.38) 10/24/2022 02:37:36 ( 22.69, 158.36)
5 10/24/2022 15:05:52 ( 22.70, 158.63) 10/24/2022 15:09:28 ( 10.02, 155.61)
6 10/25/2022 02:15:38 ( 12.40, 165.59) 10/25/2022 02:18:33 ( 22.68, 163.13)
7 10/25/2022 03:56:27 ( 10.00, 140.77) 10/25/2022 03:58:00 ( 15.47, 139.50)
8 10/25/2022 14:46:51 ( 22.65, 163.38) 10/25/2022 14:50:26 ( 10.03, 160.37)
9 10/26/2022 03:37:26 ( 10.05, 145.52) 10/26/2022 03:41:01 ( 22.67, 142.52)
10 10/26/2022 14:30:49 ( 12.05, 165.60) 10/26/2022 14:31:23 ( 10.05, 165.14)
11 10/26/2022 16:09:18 ( 22.66, 142.77) 10/26/2022 16:12:53 ( 10.04, 139.76)
12 10/27/2022 03:18:23 ( 10.03, 150.29) 10/27/2022 03:21:58 ( 22.65, 147.28)
13 10/27/2022 15:50:16 ( 22.68, 147.53) 10/27/2022 15:53:52 ( 10.00, 144.51)
14 10/28/2022 02:59:21 ( 10.01, 155.05) 10/28/2022 03:02:57 ( 22.70, 152.03)
15 10/28/2022 15:31:13 ( 22.69, 152.30) 10/28/2022 15:34:49 ( 10.02, 149.28)
16 10/29/2022 02:40:18 ( 10.00, 159.81) 10/29/2022 02:43:54 ( 22.68, 156.79)
17 10/29/2022 15:12:12 ( 22.65, 157.04) 10/29/2022 15:15:47 ( 10.03, 154.04)
18 10/30/2022 02:21:17 ( 10.05, 164.56) 10/30/2022 02:24:52 ( 22.67, 161.56)
19 10/30/2022 14:53:10 ( 22.66, 161.81) 10/30/2022 14:56:45 ( 10.04, 158.80)
20 10/31/2022 03:43:44 ( 10.04, 143.95) 10/31/2022 03:47:19 ( 22.66, 140.95)
21 10/31/2022 14:35:15 ( 18.69, 165.59) 10/31/2022 14:37:42 ( 10.06, 163.57)
22 10/31/2022 16:15:37 ( 22.67, 141.20) 10/31/2022 16:17:35 ( 15.75, 139.51)
23 11/01/2022 03:24:42 ( 10.03, 148.71) 11/01/2022 03:28:17 ( 22.65, 145.71)
24 11/01/2022 15:56:35 ( 22.68, 145.96) 11/01/2022 16:00:11 ( 10.00, 142.94)
25 11/02/2022 03:05:39 ( 10.02, 153.48) 11/02/2022 03:09:14 ( 22.64, 150.47)
26 11/02/2022 15:37:32 ( 22.69, 150.72) 11/02/2022 15:41:08 ( 10.01, 147.70)
27 11/03/2022 02:46:37 ( 10.01, 158.24) 11/03/2022 02:50:13 ( 22.69, 155.22)
28 11/03/2022 15:18:30 ( 22.70, 155.49) 11/03/2022 15:22:06 ( 10.02, 152.47)
29 11/04/2022 02:27:34 ( 10.00, 163.00) 11/04/2022 02:31:10 ( 22.68, 159.98)
30 11/04/2022 14:59:28 ( 22.65, 160.24) 11/04/2022 15:03:03 ( 10.03, 157.23)
